Location: Downe
(51.3167°N, 0.0500°E)
Time: 20:03:19
(UTC+00:00)

Abrixas rocket - Pass Details

Date: 17 November 2019
Orbit: 358 x 366 km, 48.4° (Epoch: 07 December)

Event Time Altitude Azimuth Distance (km) Brightness Sun altitude
Exits shadow 05:59:28 - 219° (SW) 1,956 5.4 -12.4°
Reaches altitude 10° 06:01:13 10° 204° (SSW) 1,337 4.7 -12.1°
Maximum altitude 06:03:31 20° 154° (SSE) 905 4.5 -11.8°
Drops below altitude 10° 06:05:49 10° 104° (ESE) 1,346 6.4 -11.5°
Sets 06:08:10 0° 87° (E) 2,197 7.4 -11.1°
